When you browse on this site, cookies collect data to enhance your experience and personalize the content and advertising you see.
Visit our Privacy Policy to learn more. By continuing to use the site, you agree to this use of cookies and data.
  • In Österreich
  • Länderverzeichnis
  • Für 7 Tage
  • Wassertemperatur
  • Satellitenkarten
  • Wetterkarte
  • News
  • Widgets
  • user-avatar
    Anmelden

    Stündliche Wetter Gagra

    Heute, 10 Dezember, Montag

    Zeit Temperatur Niederschläge Wind Luftdruck Luftfeuchtigkeit
    00:00 +6°C° 0 mm 5 m/S 732 mmHg 43%
    01:00 +6°C° 0 mm 5 m/S 732 mmHg 44%
    02:00 +6°C° 0 mm 5 m/S 732 mmHg 46%
    03:00 +6°C° 0 mm 5 m/S 731 mmHg 47%
    04:00 +6°C° 0 mm 5 m/S 731 mmHg 48%
    05:00 +6°C° 0 mm 5 m/S 731 mmHg 49%
    06:00 +7°C° 0 mm 6 m/S 731 mmHg 50%
    07:00 +7°C° 0 mm 6 m/S 730 mmHg 49%
    08:00 +8°C° 0 mm 6 m/S 730 mmHg 49%
    09:00 +8°C° 0 mm 6 m/S 730 mmHg 48%
    10:00 +10°C° 0 mm 6 m/S 730 mmHg 46%
    11:00 +12°C° 0 mm 5 m/S 729 mmHg 44%
    12:00 +14°C° 0 mm 5 m/S 729 mmHg 42%
    13:00 +13°C° 0 mm 5 m/S 729 mmHg 45%
    14:00 +13°C° 0 mm 4 m/S 729 mmHg 48%
    15:00 +12°C° 0 mm 4 m/S 730 mmHg 52%
    16:00 +11°C° 0.2 mm 4 m/S 730 mmHg 55%
    17:00 +10°C° 0.2 mm 4 m/S 730 mmHg 58%
    18:00 +8°C° 0.2 mm 4 m/S 731 mmHg 61%
    19:00 +8°C° 0.1 mm 4 m/S 731 mmHg 63%
    20:00 +8°C° 0.1 mm 5 m/S 731 mmHg 65%
    21:00 +8°C° 0.1 mm 6 m/S 730 mmHg 66%
    22:00 +8°C° 0 mm 6 m/S 730 mmHg 68%
    23:00 +8°C° 0 mm 6 m/S 730 mmHg 69%

    Morgen, 11 Dezember, Dienstag

    Zeit Temperatur Niederschläge Wind Luftdruck Luftfeuchtigkeit
    00:00 +9°C° 0 mm 6 m/S 729 mmHg 70%
    01:00 +9°C° 0 mm 6 m/S 729 mmHg 69%
    02:00 +8°C° 0 mm 6 m/S 729 mmHg 67%
    03:00 +8°C° 0 mm 6 m/S 729 mmHg 66%
    04:00 +9°C° 0.1 mm 6 m/S 728 mmHg 66%
    05:00 +9°C° 0.1 mm 6 m/S 727 mmHg 66%
    06:00 +9°C° 0.1 mm 6 m/S 727 mmHg 66%
    07:00 +10°C° 0 mm 6 m/S 726 mmHg 65%
    08:00 +10°C° 0 mm 6 m/S 726 mmHg 64%
    09:00 +11°C° 0 mm 6 m/S 725 mmHg 63%
    10:00 +11°C° 0.2 mm 6 m/S 725 mmHg 63%
    11:00 +13°C° 0.2 mm 6 m/S 724 mmHg 62%
    12:00 +14°C° 0.2 mm 6 m/S 724 mmHg 62%
    13:00 +13°C° 1.1 mm 6 m/S 724 mmHg 69%
    14:00 +11°C° 1.1 mm 6 m/S 724 mmHg 76%
    15:00 +10°C° 1.1 mm 6 m/S 725 mmHg 83%
    16:00 +10°C° 2.1 mm 6 m/S 725 mmHg 86%
    17:00 +10°C° 2.1 mm 5 m/S 726 mmHg 88%
    18:00 +9°C° 2.1 mm 5 m/S 727 mmHg 91%
    19:00 +9°C° 1.4 mm 5 m/S 728 mmHg 91%
    20:00 +9°C° 1.4 mm 5 m/S 728 mmHg 91%
    21:00 +8°C° 1.4 mm 5 m/S 729 mmHg 92%
    22:00 +8°C° 0.7 mm 4 m/S 730 mmHg 91%
    23:00 +7°C° 0.7 mm 4 m/S 730 mmHg 91%

    übermorgen, 12 Dezember, Mittwoch

    Zeit Temperatur Niederschläge Wind Luftdruck Luftfeuchtigkeit
    00:00 +8°C° 0.7 mm 3 m/S 731 mmHg 91%
    01:00 +8°C° 0.7 mm 3 m/S 731 mmHg 91%
    02:00 +7°C° 0.7 mm 3 m/S 732 mmHg 91%
    03:00 +7°C° 0.7 mm 3 m/S 732 mmHg 91%
    04:00 +7°C° 0.9 mm 3 m/S 732 mmHg 90%
    05:00 +7°C° 0.9 mm 2 m/S 732 mmHg 90%
    06:00 +7°C° 0.9 mm 2 m/S 733 mmHg 90%
    07:00 +7°C° 0.4 mm 2 m/S 733 mmHg 89%
    08:00 +7°C° 0.4 mm 3 m/S 733 mmHg 88%
    09:00 +7°C° 0.4 mm 3 m/S 733 mmHg 86%
    10:00 +7°C° 0.1 mm 3 m/S 733 mmHg 82%
    11:00 +8°C° 0.1 mm 2 m/S 733 mmHg 77%
    12:00 +9°C° 0.1 mm 2 m/S 732 mmHg 73%
    13:00 +9°C° 0 mm 2 m/S 732 mmHg 72%
    14:00 +9°C° 0 mm 2 m/S 732 mmHg 72%
    15:00 +9°C° 0 mm 1 m/S 731 mmHg 72%
    16:00 +8°C° 0 mm 2 m/S 731 mmHg 73%
    17:00 +7°C° 0 mm 3 m/S 731 mmHg 75%
    18:00 +5°C° 0 mm 4 m/S 731 mmHg 77%
    19:00 +5°C° 0.2 mm 5 m/S 731 mmHg 78%
    20:00 +5°C° 0.2 mm 5 m/S 731 mmHg 79%
    21:00 +4°C° 0.2 mm 6 m/S 731 mmHg 80%
    22:00 +4°C° 0.4 mm 6 m/S 732 mmHg 81%
    23:00 +4°C° 0.4 mm 6 m/S 732 mmHg 82%

    13 Dezember, Donnerstag

    Zeit Temperatur Niederschläge Wind Luftdruck Luftfeuchtigkeit
    00:00 +4°C° 0.4 mm 6 m/S 732 mmHg 83%
    01:00 +5°C° 0.8 mm 5 m/S 733 mmHg 85%
    02:00 +5°C° 0.8 mm 5 m/S 733 mmHg 86%
    03:00 +3°C° 0.8 mm 5 m/S 734 mmHg 88%
    04:00 +3°C° 0.4 mm 5 m/S 734 mmHg 88%
    05:00 +4°C° 0.4 mm 4 m/S 735 mmHg 88%
    06:00 +4°C° 0.4 mm 4 m/S 735 mmHg 88%
    07:00 +4°C° 0.1 mm 4 m/S 736 mmHg 87%
    08:00 +4°C° 0.1 mm 3 m/S 736 mmHg 87%
    09:00 +4°C° 0.1 mm 3 m/S 737 mmHg 87%
    10:00 +4°C° 0 mm 3 m/S 737 mmHg 82%
    11:00 +5°C° 0 mm 3 m/S 737 mmHg 78%
    12:00 +6°C° 0 mm 2 m/S 738 mmHg 73%
    13:00 +6°C° 0 mm 2 m/S 738 mmHg 73%
    14:00 +6°C° 0 mm 2 m/S 738 mmHg 72%
    15:00 +5°C° 0 mm 2 m/S 738 mmHg 72%
    16:00 +4°C° 0.1 mm 2 m/S 738 mmHg 74%
    17:00 +4°C° 0.1 mm 1 m/S 738 mmHg 76%
    18:00 +3°C° 0.1 mm 1 m/S 739 mmHg 79%
    19:00 +3°C° 0 mm 1 m/S 739 mmHg 77%
    20:00 +1°C° 0 mm 2 m/S 739 mmHg 76%
    21:00 +1°C° 0 mm 2 m/S 739 mmHg 74%
    22:00 +1°C° 0.1 mm 2 m/S 739 mmHg 74%
    23:00 -1°C° 0.1 mm 2 m/S 739 mmHg 74%

    14 Dezember, Freitag

    Zeit Temperatur Niederschläge Wind Luftdruck Luftfeuchtigkeit
    00:00 -1°C° 0.1 mm 3 m/S 739 mmHg 73%
    01:00 -1°C° 0.3 mm 3 m/S 739 mmHg 73%
    02:00 0°C° 0.3 mm 3 m/S 739 mmHg 73%
    03:00 0°C° 0.3 mm 3 m/S 739 mmHg 73%
    04:00 0°C° 0.5 mm 3 m/S 739 mmHg 75%
    05:00 0°C° 0.5 mm 3 m/S 739 mmHg 78%
    06:00 +1°C° 0.5 mm 3 m/S 739 mmHg 80%
    07:00 0°C° 0.3 mm 4 m/S 739 mmHg 80%
    08:00 0°C° 0.3 mm 4 m/S 739 mmHg 80%
    09:00 +1°C° 0.3 mm 4 m/S 739 mmHg 81%
    10:00 +1°C° 0.1 mm 5 m/S 739 mmHg 78%
    11:00 +2°C° 0.1 mm 5 m/S 739 mmHg 76%
    12:00 +3°C° 0.1 mm 5 m/S 739 mmHg 73%
    13:00 +3°C° 0.1 mm 5 m/S 739 mmHg 73%
    14:00 +3°C° 0.1 mm 5 m/S 739 mmHg 73%
    15:00 +3°C° 0.1 mm 5 m/S 739 mmHg 72%
    16:00 +2°C° 0 mm 5 m/S 740 mmHg 74%
    17:00 +1°C° 0 mm 5 m/S 740 mmHg 75%
    18:00 -1°C° 0 mm 5 m/S 740 mmHg 77%
    19:00 -1°C° 0 mm 5 m/S 740 mmHg 74%
    20:00 -1°C° 0 mm 5 m/S 740 mmHg 71%
    21:00 -2°C° 0 mm 5 m/S 740 mmHg 68%
    22:00 -2°C° 0 mm 5 m/S 740 mmHg 67%
    23:00 -2°C° 0 mm 5 m/S 740 mmHg 66%

    15 Dezember, Samstag

    Zeit Temperatur Niederschläge Wind Luftdruck Luftfeuchtigkeit
    00:00 -2°C° 0 mm 5 m/S 740 mmHg 64%
    01:00 -1°C° 0 mm 5 m/S 740 mmHg 63%
    02:00 -1°C° 0 mm 5 m/S 740 mmHg 62%
    03:00 -1°C° 0 mm 5 m/S 740 mmHg 61%
    04:00 -1°C° 0 mm 5 m/S 740 mmHg 60%
    05:00 -1°C° 0 mm 5 m/S 740 mmHg 59%
    06:00 -1°C° 0 mm 5 m/S 739 mmHg 58%
    07:00 0°C° 0 mm 5 m/S 739 mmHg 58%
    08:00 +1°C° 0 mm 5 m/S 739 mmHg 58%
    09:00 +1°C° 0 mm 5 m/S 739 mmHg 58%
    10:00 +3°C° 0 mm 5 m/S 739 mmHg 57%
    11:00 +6°C° 0 mm 5 m/S 739 mmHg 56%
    12:00 +8°C° 0 mm 5 m/S 739 mmHg 55%
    13:00 +8°C° 0 mm 5 m/S 738 mmHg 59%
    14:00 +8°C° 0 mm 4 m/S 738 mmHg 62%
    15:00 +10°C° 0 mm 4 m/S 738 mmHg 66%
    16:00 +7°C° 0 mm 4 m/S 738 mmHg 65%
    17:00 +6°C° 0 mm 4 m/S 738 mmHg 64%
    18:00 +5°C° 0 mm 4 m/S 738 mmHg 64%
    19:00 +5°C° 0 mm 4 m/S 738 mmHg 62%
    20:00 +5°C° 0 mm 4 m/S 738 mmHg 61%
    21:00 +5°C° 0 mm 4 m/S 738 mmHg 60%
    22:00 +5°C° 0 mm 4 m/S 738 mmHg 60%
    23:00 +5°C° 0 mm 4 m/S 737 mmHg 60%
    Mehr zeigen